Regional Weather Roundup
Issued by NWS Kansas City/Pleasant Hill, MO

Home | Current Version | Previous Version | Graphics & Text | Print | Product List | Glossary Off
Versions: 1 2 3 4 5 6 7 8 9 10 11 12 13 14 15 16 17 18 19 20 21 22 23 24 25 26 27 28 29 30 31 32 33 34 35 36 37 38 39 40 41 42 43 44 45 46 47 48 49 50

550
ASUS43 KEAX 210910
RWREAX

WEATHER ROUNDUP FOR EASTERN KANSAS AND NORTHWEST MISSOURI
NATIONAL WEATHER SERVICE KANSAS CITY/PLEASANT HILL MO
300 AM CST TUE FEB 21 2017

KSZ040-057-103>105-MOZ028-029-037-043-211000-
...KANSAS CITY METROPOLITAN AREA...

CITY           SKY/WX    TMP DP  RH WIND       PRES   REMARKS
K.C. INTL      CLOUDY    50  46  86 N9        29.93S
K.C. DOWNTOWN  CLOUDY    55  50  83 N5        29.93R
LEES SUMMIT    CLOUDY    53  52  96 NW3       29.93R
OLATHE - IXD   CLOUDY    50  48  93 N12       29.94R
OLATHE - OJC   CLOUDY    53  51  93 N7        29.93R
LAWRENCE       PTCLDY    47  45  93 NW7       29.95R

$$

MOZ001>008-011>017-020>025-030>033-038>040-044>046-053-054-211000-
...NORTHERN AND CENTRAL MISSOURI...

CITY           SKY/WX    TMP DP  RH WIND       PRES   REMARKS
ST. JOSEPH     CLOUDY    43  43 100 NW6       29.98R
WARRENSBURG    CLOUDY    52  50  93 CALM      29.92S
WHITEMAN AFB   MOCLDY    54  54 100 CALM      29.90F
CLINTON        CLOUDY    54  54 100 CALM      29.92F
SEDALIA        CLOUDY    57  54  89 CALM      29.92F
WARSAW         NOT AVBL
CHILLICOTHE      N/A     52  50  93 N6        29.94S
KIRKSVILLE     CLOUDY    52  51  97 NW3       29.94R

$$

MOZ041-047>049-056>058-063>065-088>090-097-211000-
...EASTERN AND SOUTHERN MISSOURI...

CITY           SKY/WX    TMP DP  RH WIND       PRES   REMARKS
ST. LOUIS INTL LGT RAIN  62  59  90 W3        29.93F
SPIRIT OF STL  LGT RAIN  61  61 100 W7        29.91F FOG
COLUMBIA       PTCLDY    57  57 100 SE3       29.93F FOG
JEFFERSON CITY FOG       56  56 100 CALM      29.93F VSB 1/4
ROLLA          FOG       55  55 100 CALM      29.92F VSB 1/2
OSAGE BEACH    CLOUDY    56  56 100 SE5       29.95R
SPRINGFIELD    CLOUDY    55  54  96 N5        29.91F FOG
BRANSON        CLOUDY    55  55 100 NE6       29.88F FOG
JOPLIN         CLOUDY    53  53 100 CALM      29.90F
WEST PLAINS    RAIN      56  55  97 NE9       29.92F FOG

$$

IAZ060-094-KSZ022-034>040-054-083-096-NEZ052-066-093-211000-
...KANSAS...SOUTHEAST NEBRASKA AND IOWA...

CITY           SKY/WX    TMP DP  RH WIND       PRES   REMARKS
TOPEKA         PTCLDY    49  44  83 NW3       29.97R
MANHATTAN      CLEAR     37  35  92 CALM      29.99R
EMPORIA        CLEAR     47  44  90 NW10      29.97R
CHANUTE        FOG       47  47 100 N7        29.92S VSB 1
WICHITA        CLEAR     46  41  82 N6        29.98R
OMAHA          CLEAR     35  30  82 CALM      29.97R
LINCOLN        CLEAR     32  31  96 CALM      29.97F FOG
FALLS CITY     CLEAR     42  40  92 CALM      29.96F
LAMONI         CLOUDY    47  43  86 N7        29.96R
DES MOINES     CLOUDY    46  42  86 N8        29.94F

$$





USA.gov is the U.S. government's official web portal to all federal, state and local government web resources and services.